User: anonymous   Login
Location: Unnamed
(23.5608°S, 46.6833°W)
Time: 05:23:57
(UTC-03:00)
Language:

ZACube-1 - Orbit

View from above orbital plane
View from above orbital plane
View from above satellite
View from above satellite

Ground track
Ground track

The orbit data is extracted from the following two-line orbital elements,

1 39417U 13066B   24205.86707021  .00009557  00000-0  97807-3 0  9994
2 39417  97.7358 161.0253 0051300  41.0615 319.4446 14.89739350577042
Epoch (UTC): 23 July 2024 20:48:34
Eccentricity: 0.0051300
inclination: 97.7358°
perigee height: 563 km
apogee height: 634 km
right ascension of ascending node: 161.0253°
argument of perigee: 41.0615°
revolutions per day: 14.89739350
mean anomaly at epoch: 319.4446°
orbit number at epoch: 57704

The dashed part of the orbit path shows where the satellite is in the earth's shadow,  

DLR